Stations météo

Publicité
Lechfeld, Allemagne (10856): Température de l'air & dewpoint: 06.12.2018 01:00:00 - 12.12.2018 01:00:00 (CET)Lechfeld, Allemagne (10856): Vitesse du vent & gusts: 06.12.2018 01:00:00 - 12.12.2018 01:00:00 (CET)Lechfeld, Allemagne (10856): Direction du vent: 06.12.2018 01:00:00 - 12.12.2018 01:00:00 (CET)Lechfeld, Allemagne (10856): reduced air pressure: 06.12.2018 01:00:00 - 12.12.2018 01:00:00 (CET)Lechfeld, Allemagne (10856): visibility: 06.12.2018 01:00:00 - 12.12.2018 01:00:00 (CET)
Date & Time tt [°C] td [°C] ff [km/h] ff [knt] fx [km/h] fx [knt] dd ppp [hPa] vv [km]
12.12.2018 01:00:00 -0,6 -2,8 14 8 - - SW 1024,6 25
12.12.2018 00:00:00 -1,1 -2,7 11 6 - - SSW 1024,8 25
11.12.2018 23:00:00 -0,7 -2,4 11 6 - - WSW 1025,0 25
11.12.2018 22:00:00 -0,3 -2,0 14 8 - - SW 1024,6 25
11.12.2018 21:00:00 0,0 -1,9 14 8 - - WSW 1024,9 15
11.12.2018 20:00:00 0,3 -1,1 11 6 - - WSW 1025,0 20
11.12.2018 19:00:00 0,1 0,0 11 6 - - WSW 1025,0 20
11.12.2018 18:00:00 0,5 -1,1 14 8 - - WSW 1024,8 20
11.12.2018 17:00:00 0,6 -0,7 14 8 - - WSW 1024,4 20
11.12.2018 16:00:00 0,3 0,1 13 7 - - WSW 1024,5 8
11.12.2018 15:00:00 0,9 -1,1 22 12 - - WSW 1024,1 15
11.12.2018 14:00:00 0,5 -0,1 18 10 - - WSW 1024,3 0,6
11.12.2018 13:00:00 0,8 -1,2 29 16 - - WSW 1024,5 5
11.12.2018 12:00:00 0,5 -1,0 22 12 - - WSW 1024,9 4,0
11.12.2018 11:00:00 0,7 -1,9 22 12 - - WSW 1025,1 25
11.12.2018 10:00:00 0,6 -2,1 22 12 - - SW 1024,8 25
11.12.2018 09:00:00 0,4 -1,9 18 10 - - WSW 1024,8 20
11.12.2018 08:00:00 0,3 -1,9 16 9 - - WSW 1024,5 4,0
11.12.2018 07:00:00 0,4 -2,0 14 8 - - WSW 1024,4 25
11.12.2018 06:00:00 0,4 -2,1 14 8 - - WSW 1024,5 15
11.12.2018 05:00:00 0,3 -2,0 18 10 - - WSW 1024,4 10
11.12.2018 04:00:00 0,6 -2,4 14 8 - - WSW 1024,1 10
11.12.2018 03:00:00 0,4 -2,2 18 10 - - W 1023,9 10
11.12.2018 02:00:00 0,4 -1,9 14 8 - - W 1024,0 20
11.12.2018 01:00:00 0,4 -1,7 14 8 - - W 1023,7 20
11.12.2018 00:00:00 0,8 -1,4 18 10 - - W 1023,7 30
10.12.2018 23:00:00 0,9 -0,1 14 8 - - W 1023,5 30
10.12.2018 22:00:00 1,3 0,3 22 12 - - W 1022,9 10
10.12.2018 21:00:00 1,6 -0,6 18 10 - - WSW 1022,3 30
10.12.2018 20:00:00 1,6 0,1 22 12 - - WSW 1022,3 25
10.12.2018 19:00:00 1,7 -0,5 14 8 - - SW 1022,7 15
10.12.2018 18:00:00 2,3 -0,9 18 10 - - WSW 1022,6 25
10.12.2018 17:00:00 2,0 -0,4 14 8 - - SW 1022,9 20
10.12.2018 16:00:00 2,2 0,5 14 8 - - WSW 1022,8 20
10.12.2018 15:00:00 1,8 1,0 13 7 - - W 1023,1 10
10.12.2018 14:00:00 3,7 -0,7 21 11 - - WSW 1022,3 10
10.12.2018 13:00:00 3,4 -0,2 18 10 - - W 1022,8 30
10.12.2018 12:00:00 2,9 0,1 25 14 - - WSW 1023,1 30
10.12.2018 11:00:00 2,2 0,0 22 12 - - WSW 1023,0 20
10.12.2018 10:00:00 1,8 0,7 22 12 - - WSW 1022,6 20
10.12.2018 09:00:00 2,0 0,1 25 14 47 25 WSW 1022,0 20
10.12.2018 08:00:00 2,5 0,2 25 14 50 27 WSW 1021,1 20
10.12.2018 07:00:00 2,7 0,0 29 16 - - WSW 1020,1 30
10.12.2018 06:00:00 3,2 0,3 32 18 50 27 WSW 1020,0 20
10.12.2018 05:00:00 3,1 1,0 25 14 - - WSW 1019,4 30
10.12.2018 04:00:00 3,6 1,3 25 14 - - WSW 1018,6 20
10.12.2018 03:00:00 4,0 2,1 22 12 - - WSW 1018,2 15
10.12.2018 02:00:00 4,0 2,8 22 12 - - WSW 1017,1 15
10.12.2018 01:00:00 4,4 2,7 22 12 - - W 1016,1 10
10.12.2018 00:00:00 4,7 2,7 22 12 - - WSW 1015,1 15
09.12.2018 23:00:00 5,0 3,1 22 12 50 27 WSW 1013,8 15
09.12.2018 22:00:00 5,1 3,4 25 14 - - WSW 1012,7 15
09.12.2018 21:00:00 4,9 3,5 25 14 54 29 WSW 1011,8 15
09.12.2018 20:00:00 5,0 3,2 29 16 50 27 WSW 1010,6 20
09.12.2018 19:00:00 4,7 3,7 32 18 - - WSW 1009,3 15
09.12.2018 18:00:00 4,6 3,6 29 16 58 31 SW 1008,4 12
09.12.2018 17:00:00 5,1 3,2 36 19 58 31 SW 1007,6 12
09.12.2018 16:00:00 4,9 4,0 32 18 - - SW 1007,2 10
09.12.2018 15:00:00 5,8 2,7 36 19 58 31 SW 1006,6 20
09.12.2018 14:00:00 5,4 3,4 29 16 58 31 SW 1006,4 10
09.12.2018 13:00:00 5,7 2,5 32 18 - - SW 1006,6 12
09.12.2018 12:00:00 6,0 2,0 36 19 58 31 SW 1007,2 15
09.12.2018 11:00:00 6,0 2,0 36 19 54 29 WSW 1007,8 14
09.12.2018 10:00:00 5,2 2,2 40 21 - - WSW 1007,0 9
09.12.2018 09:00:00 4,5 1,8 25 14 50 27 SW 1006,2 15
09.12.2018 08:00:00 5,0 2,4 29 16 47 25 WSW 1005,8 15
09.12.2018 07:00:00 4,8 4,1 32 18 - - W 1005,4 5
09.12.2018 06:00:00 7,1 4,0 32 18 72 39 WSW 1003,7 15
09.12.2018 05:00:00 7,8 4,1 40 21 61 33 SW 1002,4 13
09.12.2018 04:00:00 7,3 3,6 40 21 - - SW 1003,8 11
09.12.2018 03:00:00 7,2 3,9 32 18 72 39 WSW 1005,2 7
09.12.2018 02:00:00 7,1 2,7 47 25 79 43 SW 1004,8 16
09.12.2018 01:00:00 6,1 2,4 40 21 - - SSW 1006,6 16
09.12.2018 00:00:00 6,0 2,0 32 18 72 39 SSW 1008,4 19
08.12.2018 23:00:00 6,4 1,6 36 19 72 39 SSW 1009,7 17
08.12.2018 22:00:00 6,1 1,9 43 23 - - SSW 1010,5 10
08.12.2018 21:00:00 6,8 0,6 36 19 72 39 SW 1011,6 17
08.12.2018 20:00:00 6,7 0,6 43 23 68 37 SW 1012,5 17
08.12.2018 19:00:00 6,2 1,1 40 21 - - SW 1013,3 18
08.12.2018 18:00:00 5,9 1,2 40 21 65 35 SW 1014,0 18
08.12.2018 17:00:00 5,9 0,8 36 19 65 35 SW 1014,1 17
08.12.2018 16:00:00 5,9 0,5 40 21 - - SW 1014,2 18
08.12.2018 15:00:00 6,2 -0,3 40 21 76 41 SW 1014,2 17
08.12.2018 14:00:00 6,3 -0,6 43 23 76 41 SW 1013,8 19
08.12.2018 13:00:00 6,4 -0,9 43 23 - - SW 1014,6 19
08.12.2018 12:00:00 6,3 -0,8 43 23 65 35 SW 1014,9 17
08.12.2018 11:00:00 6,0 -1,0 40 21 65 35 SW 1015,3 16
08.12.2018 10:00:00 5,2 -0,8 32 18 - - SW 1016,0 16
08.12.2018 09:00:00 4,6 -0,7 32 18 50 27 WSW 1016,8 16
08.12.2018 08:00:00 3,9 -0,8 25 14 58 31 SW 1016,4 20
08.12.2018 07:00:00 3,8 -0,7 32 18 - - SW 1016,2 17
08.12.2018 06:00:00 3,6 0,0 25 14 47 25 SW 1016,0 17
08.12.2018 05:00:00 3,8 1,6 22 12 - - SW 1015,9 19
08.12.2018 04:00:00 4,6 0,3 29 16 - - WSW 1015,4 9
08.12.2018 03:00:00 5,2 0,9 29 16 54 29 WSW 1014,7 18
08.12.2018 02:00:00 5,8 1,0 29 16 58 31 W 1013,4 16
08.12.2018 01:00:00 6,4 1,7 32 18 - - W 1011,5 17
08.12.2018 00:00:00 7,5 4,4 29 16 68 37 W 1009,8 17
07.12.2018 23:00:00 9,3 4,9 40 21 61 33 SW 1007,8 16
07.12.2018 22:00:00 9,0 5,1 32 18 - - SW 1008,6 18
07.12.2018 21:00:00 8,9 5,1 25 14 - - SW 1008,7 12
07.12.2018 20:00:00 8,2 5,3 18 10 - - SW 1009,0 16
07.12.2018 19:00:00 7,6 5,3 11 6 - - SW 1009,3 18
07.12.2018 18:00:00 8,4 5,2 11 6 - - SW 1009,2 17
07.12.2018 17:00:00 9,4 5,6 14 8 - - SW 1009,9 17
07.12.2018 16:00:00 10,6 5,0 25 14 - - WSW 1011,0 18
07.12.2018 15:00:00 11,6 5,6 18 10 - - SW 1011,5 19
07.12.2018 14:00:00 11,7 6,1 18 10 - - SW 1011,9 16
07.12.2018 13:00:00 11,1 5,7 25 14 - - SW 1013,8 75
07.12.2018 12:00:00 10,9 6,0 25 14 47 25 SW 1015,0 75
07.12.2018 11:00:00 10,4 5,9 29 16 47 25 SW 1016,5 75
07.12.2018 10:00:00 10,1 6,0 25 14 - - SW 1017,3 75
07.12.2018 09:00:00 9,7 5,9 22 12 - - SW 1018,3 70
07.12.2018 08:00:00 9,5 5,9 22 12 - - SW 1018,8 60
07.12.2018 07:00:00 9,3 5,9 14 8 - - SW 1019,4 50
07.12.2018 06:00:00 9,3 5,9 18 10 - - SSW 1019,7 40
07.12.2018 05:00:00 9,3 5,8 18 10 - - SW 1020,2 30
07.12.2018 04:00:00 9,3 5,9 18 10 - - SW 1020,9 30
07.12.2018 03:00:00 9,3 5,9 18 10 - - SW 1021,4 30
07.12.2018 02:00:00 9,4 6,0 18 10 - - SW 1021,5 30
07.12.2018 01:00:00 9,3 6,2 18 10 - - SW 1022,0 30
07.12.2018 00:00:00 9,2 6,0 14 8 - - SW 1022,3 30
06.12.2018 23:00:00 9,2 6,0 14 8 - - SW 1022,5 30
06.12.2018 22:00:00 9,1 6,1 18 10 - - SW 1022,7 30
06.12.2018 21:00:00 9,0 6,2 18 10 - - SW 1023,1 30
06.12.2018 20:00:00 8,8 6,6 14 8 - - SSW 1023,3 30
06.12.2018 19:00:00 8,8 6,7 14 8 - - SW 1023,2 30
06.12.2018 18:00:00 8,7 7,1 14 8 - - SSW 1022,7 30
06.12.2018 17:00:00 8,8 6,9 14 8 - - SW 1022,7 30
06.12.2018 16:00:00 9,1 6,6 14 8 - - WSW 1022,4 30
06.12.2018 15:00:00 9,5 6,4 22 12 - - SW 1022,1 30
06.12.2018 14:00:00 9,9 6,3 29 16 - - SW 1021,4 30
06.12.2018 13:00:00 9,4 6,7 18 10 - - SW 1021,4 20
06.12.2018 12:00:00 8,5 6,9 14 8 - - SW 1021,9 8
06.12.2018 11:00:00 8,6 6,5 25 14 - - SW 1021,7 30
06.12.2018 10:00:00 8,5 6,1 22 12 - - SW 1021,2 30
06.12.2018 09:00:00 7,3 6,0 14 8 - - SSW 1020,5 20
06.12.2018 08:00:00 6,2 5,2 11 6 - - SSW 1020,5 20
06.12.2018 07:00:00 5,2 5,1 7 4 - - S 1020,4 10
06.12.2018 06:00:00 5,5 5,3 7 4 - - S 1019,8 15
06.12.2018 05:00:00 5,3 4,6 8 4 - - S 1020,1 10
06.12.2018 04:00:00 4,6 4,5 7 4 - - SSE 1020,6 6
06.12.2018 03:00:00 4,6 4,0 7 4 - - SW 1021,6 6
06.12.2018 02:00:00 3,9 3,8 7 4 - - SSW 1021,2 5
06.12.2018 01:00:00 3,5 3,4 7 4 - - E 1021,0 3,0

tt = Température de l'air
td = dewpoint
ff = Vitesse du vent
fx = gusts
dd = Direction du vent
ppp = reduced air pressure
vv = visibility

stations d'obs. à proximité